SWA983 KBUR-KPHX

Flight info

Callsign SWA983
Flight time 1h 7m
Altitude 33000
Route SLAPP2 HEC PRFUM WOTRO BRUSR1
Aircraft B737/M-SADE2E3GIJ4RWZ/LB1D1

Departure

Time 2026-05-05 15:03
Airport Hollywood Burbank/Bob Hope Airport (KBUR)

Arrival

Time 2026-05-05 16:11
Airport Phoenix Sky Harbor International Airport (KPHX)
Time Latitude Longitude Altitude Speed Heading
2026-05-05 14:38 34.19679 -118.35153 709 ft 0 kts 181°
2026-05-05 14:46 34.19680 -118.35153 709 ft 2 kts 181°
2026-05-05 14:46 34.19703 -118.35148 697 ft 4 kts 219°
2026-05-05 14:46 34.19716 -118.35124 696 ft 3 kts 268°
2026-05-05 14:47 34.19716 -118.35119 696 ft 0 kts 271°
2026-05-05 14:55 34.19716 -118.35123 707 ft 3 kts 271°
2026-05-05 14:55 34.19717 -118.35192 708 ft 11 kts 271°
2026-05-05 14:56 34.19718 -118.35281 711 ft 10 kts 271°
2026-05-05 14:56 34.19720 -118.35367 710 ft 10 kts 274°
2026-05-05 14:56 34.19736 -118.35447 712 ft 10 kts 296°
2026-05-05 14:56 34.19778 -118.35510 713 ft 9 kts 318°
2026-05-05 14:57 34.19842 -118.35531 718 ft 10 kts 347°
2026-05-05 14:57 34.19940 -118.35557 719 ft 17 kts 348°
2026-05-05 14:57 34.20052 -118.35586 720 ft 16 kts 347°
2026-05-05 14:57 34.20159 -118.35616 728 ft 15 kts 347°
2026-05-05 14:58 34.20262 -118.35644 733 ft 15 kts 347°
2026-05-05 14:58 34.20360 -118.35671 737 ft 14 kts 347°
2026-05-05 14:58 34.20454 -118.35697 743 ft 14 kts 347°
2026-05-05 14:58 34.20543 -118.35723 746 ft 13 kts 347°
2026-05-05 14:59 34.20632 -118.35748 751 ft 13 kts 347°
2026-05-05 14:59 34.20718 -118.35771 757 ft 13 kts 347°
2026-05-05 14:59 34.20802 -118.35794 768 ft 12 kts 347°
2026-05-05 14:59 34.20884 -118.35816 775 ft 12 kts 347°
2026-05-05 15:00 34.20964 -118.35838 779 ft 12 kts 347°
2026-05-05 15:00 34.21016 -118.35852 782 ft 11 kts 347°
2026-05-05 15:00 34.21117 -118.35880 783 ft 11 kts 344°
2026-05-05 15:00 34.21163 -118.35913 784 ft 1 kts 311°
2026-05-05 15:01 34.21165 -118.35915 784 ft 0 kts 311°
2026-05-05 15:01 34.21188 -118.35947 784 ft 16 kts 310°
2026-05-05 15:01 34.21157 -118.36026 785 ft 13 kts 168°
2026-05-05 15:01 34.21148 -118.36022 785 ft 0 kts 167°
2026-05-05 15:02 34.21059 -118.35998 787 ft 42 kts 167°
2026-05-05 15:02 34.20519 -118.35849 747 ft 116 kts 167°
2026-05-05 15:02 34.19537 -118.35570 750 ft 167 kts 167°
2026-05-05 15:03 34.18348 -118.35228 1219 ft 182 kts 167°
2026-05-05 15:03 34.17056 -118.35053 1854 ft 192 kts 194°
2026-05-05 15:03 34.15841 -118.35899 2234 ft 217 kts 220°
2026-05-05 15:03 34.14644 -118.37153 2654 ft 234 kts 222°
2026-05-05 15:04 34.13622 -118.38635 3270 ft 246 kts 246°
2026-05-05 15:04 34.13370 -118.40716 3938 ft 257 kts 271°
2026-05-05 15:04 34.13409 -118.42888 4841 ft 260 kts 271°
2026-05-05 15:04 34.13525 -118.44968 5683 ft 264 kts 285°
2026-05-05 15:05 34.16136 -118.47775 7781 ft 270 kts 352°
2026-05-05 15:05 34.18028 -118.47621 8908 ft 276 kts
2026-05-05 15:05 34.19928 -118.47152 9965 ft 282 kts 11°
2026-05-05 15:06 34.21883 -118.46625 10679 ft 298 kts 11°
2026-05-05 15:06 34.24016 -118.46040 10923 ft 330 kts 11°
2026-05-05 15:06 34.26334 -118.45403 11365 ft 352 kts 11°
2026-05-05 15:06 34.28758 -118.44733 12196 ft 360 kts 11°
2026-05-05 15:07 34.31226 -118.44046 13133 ft 366 kts 11°
2026-05-05 15:07 34.33732 -118.43343 14022 ft 373 kts 11°
2026-05-05 15:07 34.36274 -118.42627 14876 ft 377 kts 12°
2026-05-05 15:07 34.38840 -118.41909 15789 ft 380 kts 12°
2026-05-05 15:08 34.41434 -118.41190 16674 ft 384 kts 12°
2026-05-05 15:08 34.44057 -118.40473 17509 ft 389 kts 12°
2026-05-05 15:08 34.46692 -118.39762 18316 ft 392 kts 12°
2026-05-05 15:08 34.49346 -118.39054 18625 ft 390 kts 12°
2026-05-05 15:09 34.51945 -118.37998 19073 ft 401 kts 30°
2026-05-05 15:09 34.54049 -118.35788 19895 ft 404 kts 49°
2026-05-05 15:09 34.55772 -118.33103 20493 ft 411 kts 52°
2026-05-05 15:09 34.57476 -118.30299 21175 ft 416 kts 54°
2026-05-05 15:10 34.58901 -118.27222 21851 ft 422 kts 68°
2026-05-05 15:10 34.59696 -118.23782 22517 ft 426 kts 81°
2026-05-05 15:10 34.60088 -118.20196 23169 ft 431 kts 82°
2026-05-05 15:10 34.60474 -118.16560 23752 ft 436 kts 82°
2026-05-05 15:11 34.60874 -118.12892 24302 ft 439 kts 82°
2026-05-05 15:11 34.61288 -118.09206 24898 ft 441 kts 82°
2026-05-05 15:11 34.61716 -118.05508 25443 ft 444 kts 82°
2026-05-05 15:11 34.62156 -118.01774 25934 ft 448 kts 82°
2026-05-05 15:12 34.62601 -117.98022 26419 ft 451 kts 82°
2026-05-05 15:12 34.63045 -117.94296 26922 ft 452 kts 81°
2026-05-05 15:12 34.63508 -117.90474 27344 ft 452 kts 81°
2026-05-05 15:12 34.63960 -117.86734 27591 ft 447 kts 81°
2026-05-05 15:13 34.64397 -117.83030 27609 ft 443 kts 82°
2026-05-05 15:13 34.64833 -117.79292 27754 ft 452 kts 81°
2026-05-05 15:13 34.65276 -117.75479 28050 ft 459 kts 82°
2026-05-05 15:13 34.65725 -117.71606 28384 ft 465 kts 81°
2026-05-05 15:14 34.66171 -117.67760 28754 ft 469 kts 82°
2026-05-05 15:14 34.66603 -117.64013 29143 ft 472 kts 81°
2026-05-05 15:14 34.67035 -117.60264 29638 ft 472 kts 81°
2026-05-05 15:14 34.67488 -117.56328 30251 ft 469 kts 81°
2026-05-05 15:15 34.67934 -117.52458 30706 ft 469 kts 82°
2026-05-05 15:15 34.68388 -117.48516 30946 ft 474 kts 81°
2026-05-05 15:15 34.68791 -117.45013 31219 ft 477 kts 82°
2026-05-05 15:15 34.69253 -117.40977 31423 ft 483 kts 82°
2026-05-05 15:16 34.69714 -117.36938 31759 ft 485 kts 82°
2026-05-05 15:16 34.70176 -117.32880 32135 ft 485 kts 83°
2026-05-05 15:16 34.70572 -117.29395 32462 ft 486 kts 83°
2026-05-05 15:16 34.71032 -117.25330 32806 ft 488 kts 83°
2026-05-05 15:17 34.71489 -117.21277 32990 ft 491 kts 83°
2026-05-05 15:17 34.72399 -117.13183 32912 ft 493 kts 83°
2026-05-05 15:18 34.73314 -117.04993 32933 ft 491 kts 83°
2026-05-05 15:18 34.74220 -116.96828 32936 ft 490 kts 83°
2026-05-05 15:19 34.75120 -116.88666 32948 ft 489 kts 83°
2026-05-05 15:19 34.76014 -116.80503 32951 ft 489 kts 84°
2026-05-05 15:20 34.76906 -116.72307 32955 ft 490 kts 84°
2026-05-05 15:20 34.77801 -116.64038 32949 ft 495 kts 84°
2026-05-05 15:21 34.78694 -116.55734 32919 ft 494 kts 84°
2026-05-05 15:21 34.79601 -116.47467 32916 ft 493 kts 82°
2026-05-05 15:22 34.81521 -116.39513 32915 ft 494 kts 71°
2026-05-05 15:22 34.83911 -116.31660 32897 ft 495 kts 70°
2026-05-05 15:23 34.86289 -116.23794 32888 ft 495 kts 71°
2026-05-05 15:23 34.88333 -116.16869 32906 ft 496 kts 72°
2026-05-05 15:24 34.90646 -116.08928 32915 ft 498 kts 72°
2026-05-05 15:24 34.92956 -116.00953 32912 ft 499 kts 72°
2026-05-05 15:25 34.95257 -115.93002 32912 ft 501 kts 72°
2026-05-05 15:25 34.97574 -115.84971 32926 ft 502 kts 72°
2026-05-05 15:26 34.99895 -115.76910 32922 ft 504 kts 72°
2026-05-05 15:26 35.02216 -115.68828 32927 ft 505 kts 72°
2026-05-05 15:27 35.04538 -115.60721 32910 ft 506 kts 73°
2026-05-05 15:27 35.06844 -115.52639 32926 ft 508 kts 73°
2026-05-05 15:28 35.09162 -115.44493 32929 ft 509 kts 73°
2026-05-05 15:28 35.11483 -115.36317 32914 ft 510 kts 73°
2026-05-05 15:29 35.13804 -115.28114 32910 ft 510 kts 73°
2026-05-05 15:29 35.15726 -115.21300 32910 ft 511 kts 73°
2026-05-05 15:30 35.18413 -115.11747 32896 ft 512 kts 73°
2026-05-05 15:30 35.20348 -115.04854 32905 ft 511 kts 73°
2026-05-05 15:31 35.22653 -114.96614 32900 ft 513 kts 74°
2026-05-05 15:31 35.24950 -114.88375 32906 ft 516 kts 74°
2026-05-05 15:32 35.27268 -114.80036 32901 ft 518 kts 74°
2026-05-05 15:32 35.29586 -114.71678 32888 ft 519 kts 74°
2026-05-05 15:33 35.31898 -114.63314 32873 ft 518 kts 74°
2026-05-05 15:33 35.34200 -114.54962 32883 ft 517 kts 74°
2026-05-05 15:34 35.36476 -114.46675 32864 ft 516 kts 74°
2026-05-05 15:34 35.38764 -114.38320 32810 ft 515 kts 74°
2026-05-05 15:35 35.41031 -114.29998 32881 ft 514 kts 74°
2026-05-05 15:35 35.43298 -114.21668 32869 ft 514 kts 74°
2026-05-05 15:36 35.45557 -114.13355 32875 ft 513 kts 74°
2026-05-05 15:36 35.47799 -114.05070 32858 ft 512 kts 75°
2026-05-05 15:37 35.49350 -113.96597 32886 ft 505 kts 97°
2026-05-05 15:37 35.48874 -113.92365 32890 ft 497 kts 111°
2026-05-05 15:37 35.47657 -113.88451 32896 ft 485 kts 126°
2026-05-05 15:38 35.44025 -113.81604 32910 ft 482 kts 132°
2026-05-05 15:38 35.40215 -113.74821 32856 ft 483 kts 132°
2026-05-05 15:39 35.36458 -113.67993 32873 ft 483 kts 132°
2026-05-05 15:39 35.32733 -113.61134 32642 ft 484 kts 132°
2026-05-05 15:39 35.30888 -113.57727 32353 ft 475 kts 133°
2026-05-05 15:40 35.29067 -113.54370 32077 ft 471 kts 133°
2026-05-05 15:40 35.27252 -113.51035 31820 ft 470 kts 133°
2026-05-05 15:40 35.25436 -113.47711 31572 ft 470 kts 133°
2026-05-05 15:40 35.23615 -113.44379 31337 ft 471 kts 133°
2026-05-05 15:41 35.21793 -113.41048 31053 ft 471 kts 134°
2026-05-05 15:41 35.19972 -113.37717 30808 ft 470 kts 134°
2026-05-05 15:41 35.18154 -113.34393 30583 ft 470 kts 134°
2026-05-05 15:41 35.16337 -113.31075 30346 ft 470 kts 134°
2026-05-05 15:42 35.14541 -113.27791 30117 ft 470 kts 134°
2026-05-05 15:42 35.12728 -113.24473 29877 ft 469 kts 134°
2026-05-05 15:42 35.10915 -113.21155 29598 ft 469 kts 134°
2026-05-05 15:42 35.09104 -113.17845 29301 ft 469 kts 133°
2026-05-05 15:43 35.07283 -113.14523 28890 ft 465 kts 133°
2026-05-05 15:43 35.05476 -113.11235 28481 ft 468 kts 133°
2026-05-05 15:43 35.03660 -113.07951 28275 ft 469 kts 133°
2026-05-05 15:43 35.01827 -113.04647 28015 ft 467 kts 133°
2026-05-05 15:44 35.00015 -113.01376 27765 ft 463 kts 133°
2026-05-05 15:44 34.98208 -112.98121 27538 ft 462 kts 133°
2026-05-05 15:44 34.96399 -112.94875 27285 ft 463 kts 133°
2026-05-05 15:44 34.94599 -112.91631 27049 ft 461 kts 133°
2026-05-05 15:45 34.92809 -112.88396 26819 ft 458 kts 133°
2026-05-05 15:45 34.91049 -112.85220 26576 ft 456 kts 132°
2026-05-05 15:45 34.89271 -112.82024 26356 ft 454 kts 132°
2026-05-05 15:45 34.87498 -112.78843 26123 ft 452 kts 132°
2026-05-05 15:46 34.85730 -112.75672 25873 ft 452 kts 132°
2026-05-05 15:46 34.83960 -112.72504 25641 ft 452 kts 132°
2026-05-05 15:46 34.82193 -112.69343 25416 ft 449 kts 131°
2026-05-05 15:46 34.80442 -112.66210 25185 ft 447 kts 132°
2026-05-05 15:47 34.78693 -112.63083 24955 ft 446 kts 131°
2026-05-05 15:47 34.77534 -112.61014 24809 ft 445 kts 131°
2026-05-05 15:47 34.75208 -112.56861 24517 ft 444 kts 131°
2026-05-05 15:47 34.73490 -112.53797 24288 ft 443 kts 131°
2026-05-05 15:48 34.71758 -112.50711 24064 ft 441 kts 131°
2026-05-05 15:48 34.69962 -112.47709 23960 ft 434 kts 138°
2026-05-05 15:48 34.67679 -112.45270 23496 ft 445 kts 148°
2026-05-05 15:48 34.65214 -112.42946 22949 ft 448 kts 148°
2026-05-05 15:49 34.62749 -112.40618 22455 ft 447 kts 147°
2026-05-05 15:49 34.60323 -112.38297 21990 ft 443 kts 147°
2026-05-05 15:49 34.57911 -112.35962 21525 ft 441 kts 147°
2026-05-05 15:49 34.55530 -112.33638 21050 ft 439 kts 147°
2026-05-05 15:50 34.53155 -112.31320 20585 ft 436 kts 147°
2026-05-05 15:50 34.50826 -112.29044 20109 ft 424 kts 146°
2026-05-05 15:50 34.48570 -112.26839 19659 ft 409 kts 146°
2026-05-05 15:50 34.46420 -112.24742 19235 ft 395 kts 147°
2026-05-05 15:51 34.44182 -112.22981 18750 ft 369 kts 163°
2026-05-05 15:51 34.41821 -112.22165 18482 ft 341 kts 172°
2026-05-05 15:51 34.41051 -112.21961 18356 ft 336 kts 173°
2026-05-05 15:51 34.39455 -112.21560 18131 ft 328 kts 173°
2026-05-05 15:52 34.37240 -112.21020 17792 ft 323 kts 173°
2026-05-05 15:52 34.35015 -112.20478 17511 ft 329 kts 173°
2026-05-05 15:52 34.32756 -112.19919 17226 ft 331 kts 173°
2026-05-05 15:52 34.30509 -112.19351 16916 ft 330 kts 172°
2026-05-05 15:53 34.28258 -112.18775 16618 ft 330 kts 172°
2026-05-05 15:53 34.26009 -112.18196 16316 ft 328 kts 172°
2026-05-05 15:53 34.23788 -112.17622 16002 ft 325 kts 172°
2026-05-05 15:53 34.21589 -112.17054 15699 ft 320 kts 172°
2026-05-05 15:54 34.19426 -112.16494 15408 ft 317 kts 172°
2026-05-05 15:54 34.17276 -112.15939 15111 ft 315 kts 172°
2026-05-05 15:54 34.15142 -112.15390 14827 ft 313 kts 172°
2026-05-05 15:54 34.13025 -112.14844 14539 ft 311 kts 172°
2026-05-05 15:55 34.10918 -112.14301 14252 ft 306 kts 171°
2026-05-05 15:55 34.08862 -112.13769 13961 ft 298 kts 171°
2026-05-05 15:55 34.06916 -112.13113 13668 ft 287 kts 166°
2026-05-05 15:55 34.05060 -112.12346 13369 ft 277 kts 165°
2026-05-05 15:56 34.03233 -112.11573 13123 ft 280 kts 165°
2026-05-05 15:56 34.01408 -112.10807 12866 ft 284 kts 165°
2026-05-05 15:56 33.99533 -112.10030 12602 ft 287 kts 165°
2026-05-05 15:56 33.97641 -112.09251 12324 ft 286 kts 165°
2026-05-05 15:57 33.95767 -112.08483 12033 ft 283 kts 165°
2026-05-05 15:57 33.93922 -112.07727 11792 ft 278 kts 165°
2026-05-05 15:57 33.92094 -112.06984 11527 ft 276 kts 165°
2026-05-05 15:57 33.90276 -112.06247 11280 ft 275 kts 165°
2026-05-05 15:58 33.88465 -112.05513 11023 ft 274 kts 165°
2026-05-05 15:58 33.86657 -112.04780 10753 ft 273 kts 165°
2026-05-05 15:58 33.84855 -112.04053 10488 ft 274 kts 164°
2026-05-05 15:58 33.83068 -112.03326 10209 ft 273 kts 164°
2026-05-05 15:59 33.81286 -112.02601 9934 ft 267 kts 164°
2026-05-05 15:59 33.79539 -112.01891 9659 ft 262 kts 164°
2026-05-05 15:59 33.77832 -112.01200 9377 ft 256 kts 164°
2026-05-05 15:59 33.76152 -112.00520 9113 ft 254 kts 164°
2026-05-05 16:00 33.74471 -111.99840 8966 ft 254 kts 164°
2026-05-05 16:00 33.72794 -111.99162 8824 ft 254 kts 164°
2026-05-05 16:00 33.71135 -111.98492 8661 ft 254 kts 163°
2026-05-05 16:00 33.69468 -111.97819 8508 ft 253 kts 163°
2026-05-05 16:01 33.67792 -111.97143 8370 ft 254 kts 163°
2026-05-05 16:01 33.66133 -111.96473 8204 ft 247 kts 163°
2026-05-05 16:01 33.64522 -111.95821 8060 ft 239 kts 163°
2026-05-05 16:01 33.62975 -111.95195 7923 ft 230 kts 163°
2026-05-05 16:02 33.61467 -111.94586 7795 ft 227 kts 163°
2026-05-05 16:02 33.59994 -111.93991 7664 ft 226 kts 163°
2026-05-05 16:02 33.58501 -111.93389 7521 ft 225 kts 163°
2026-05-05 16:02 33.57016 -111.92789 7396 ft 224 kts 163°
2026-05-05 16:03 33.55536 -111.92193 7256 ft 224 kts 163°
2026-05-05 16:03 33.54085 -111.91479 7114 ft 230 kts 147°
2026-05-05 16:03 33.53059 -111.90001 7055 ft 236 kts 117°
2026-05-05 16:03 33.52701 -111.88068 6937 ft 242 kts 97°
2026-05-05 16:04 33.52659 -111.86076 6747 ft 234 kts 94°
2026-05-05 16:04 33.52649 -111.84232 6540 ft 219 kts 96°
2026-05-05 16:04 33.52584 -111.82462 6297 ft 206 kts 96°
2026-05-05 16:04 33.52374 -111.80829 6075 ft 195 kts 123°
2026-05-05 16:05 33.51410 -111.79812 5633 ft 185 kts 167°
2026-05-05 16:05 33.50149 -111.79672 5179 ft 182 kts 187°
2026-05-05 16:05 33.48924 -111.79940 4912 ft 177 kts 195°
2026-05-05 16:05 33.47713 -111.80274 4650 ft 181 kts 194°
2026-05-05 16:06 33.46474 -111.80611 4424 ft 184 kts 194°
2026-05-05 16:06 33.45222 -111.80991 4126 ft 187 kts 205°
2026-05-05 16:06 33.44390 -111.82053 3910 ft 175 kts 253°
2026-05-05 16:06 33.44230 -111.83459 3711 ft 166 kts 261°
2026-05-05 16:07 33.44126 -111.84782 3497 ft 152 kts 265°
2026-05-05 16:07 33.44092 -111.85986 3302 ft 139 kts 268°
2026-05-05 16:07 33.44083 -111.87065 3136 ft 127 kts 269°
2026-05-05 16:07 33.44080 -111.88109 2958 ft 127 kts 269°
2026-05-05 16:08 33.44079 -111.89189 2810 ft 132 kts 268°
2026-05-05 16:08 33.44079 -111.90280 2628 ft 130 kts 268°
2026-05-05 16:08 33.44079 -111.91352 2439 ft 128 kts 269°
2026-05-05 16:08 33.44079 -111.92432 2281 ft 132 kts 268°
2026-05-05 16:09 33.44080 -111.93518 2095 ft 130 kts 268°
2026-05-05 16:09 33.44079 -111.94604 1944 ft 134 kts 268°
2026-05-05 16:09 33.44080 -111.95722 1787 ft 134 kts 269°
2026-05-05 16:09 33.44080 -111.96795 1563 ft 121 kts 272°
2026-05-05 16:10 33.44085 -111.97829 1463 ft 129 kts 267°
2026-05-05 16:10 33.44088 -111.98892 1245 ft 126 kts 270°
2026-05-05 16:10 33.44081 -111.99910 1132 ft 114 kts 270°
2026-05-05 16:10 33.44086 -112.00666 1128 ft 71 kts 271°
2026-05-05 16:11 33.44085 -112.01080 1130 ft 27 kts 269°
2026-05-05 16:11 33.43973 -112.01247 1126 ft 13 kts 90°
2026-05-05 16:12 33.43973 -112.01137 1126 ft 13 kts 90°
2026-05-05 16:12 33.43971 -112.00927 1125 ft 12 kts 90°
2026-05-05 16:13 33.43975 -112.00631 1124 ft 12 kts 88°
2026-05-05 16:13 33.43978 -112.00510 1125 ft 17 kts 89°
2026-05-05 16:13 33.43945 -112.00381 1124 ft 18 kts 154°
2026-05-05 16:14 33.43719 -112.00379 1118 ft 14 kts 179°
2026-05-05 16:14 33.43536 -112.00380 1118 ft 13 kts 180°
2026-05-05 16:15 33.43346 -112.00381 1120 ft 14 kts 180°
2026-05-05 16:15 33.43284 -112.00259 1124 ft 13 kts 90°
2026-05-05 16:16 33.43283 -111.99999 1124 ft 16 kts 90°
2026-05-05 16:16 33.43282 -111.99735 1119 ft 15 kts 90°
2026-05-05 16:17 33.43281 -111.99492 1124 ft 14 kts 90°
2026-05-05 16:17 33.43281 -111.99379 1124 ft 13 kts 90°
2026-05-05 16:18 33.43364 -111.99306 1119 ft 7 kts 360°
2026-05-05 16:18 33.43389 -111.99318 1123 ft 4 kts 295°
2026-05-05 16:18 33.43407 -111.99372 1120 ft 0 kts 290°